FW6194 Weather Reports


Display with metric or nautical units.
time (UTC)temp
F
wind
direction
speed
MPH
gust
MPH
rain 1hr
in
rain 24hr
in
rain mn
in
humidity
%
barometer
mb
20260505061523 56 89 0.0 0.0 0.00 0.00 0.00 61 1010.2
20260505060013 57 89 0.0 0.0 0.00 0.00 0.00 60 1010.2
20260505054518 58 89 0.0 1.0 0.00 0.00 0.00 56 1010.2
20260505053011 59 89 0.0 3.0 0.00 0.00 0.00 57 1010.2
20260505051510 59 89 0.0 2.0 0.00 0.00 0.00 59 1010.2
20260505041507 63 89 0.0 2.0 0.00 0.00 0.00 51 1010.2
20260505040009 64 89 2.0 3.0 0.00 0.00 0.00 48 1010.2
20260505034506 65 89 1.0 3.0 0.00 0.00 0.00 47 1010.2
20260505033008 67 89 1.0 4.0 0.00 0.00 0.00 44 1010.2
20260505031505 69 88 0.0 3.0 0.00 0.00 0.00 42 1010.2
20260505030005 72 34 1.0 2.0 0.00 0.00 0.00 40 1010.2
20260505024511 73 25 1.0 2.0 0.00 0.00 0.00 37 1010.2
20260505023003 74 360 1.0 2.0 0.00 0.00 0.00 36 1010.2
20260505021509 74 360 0.0 2.0 0.00 0.00 0.00 36 1010.2
20260505020003 75 20 1.0 4.0 0.00 0.00 0.00 32 1010.2
20260505014501 76 325 0.0 2.0 0.00 0.00 0.00 34 1010.2
20260505013001 78 325 1.0 3.0 0.00 0.00 0.00 33 1010.2
20260505011502 79 165 0.0 3.0 0.00 0.00 0.00 30 1010.2
20260505010002 79 139 0.0 2.0 0.00 0.00 0.00 33 1010.2
20260505004606 80 360 1.0 4.0 0.00 0.00 0.00 26 1010.2
20260505003059 80 355 3.0 6.0 0.00 0.00 0.00 28 1010.2
20260505001600 80 112 2.0 6.0 0.00 0.00 0.00 27 1010.2
20260505000059 80 286 1.0 8.0 0.00 0.00 0.00 26 1010.2
20260504234600 79 222 1.0 6.0 0.00 0.00 0.00 32 1010.2
20260504233102 80 119 2.0 5.0 0.00 0.00 0.00 29 1010.2
20260504231557 80 313 6.0 24.0 0.00 0.00 0.00 30 1010.2
20260504230058 80 273 3.0 9.0 0.00 0.00 0.00 27 1010.2
20260504224556 81 234 5.0 15.0 0.00 0.00 0.00 28 1010.2
20260504223059 81 315 1.0 11.0 0.00 0.00 0.00 25 1010.2
20260504221604 81 298 3.0 5.0 0.00 0.00 0.00 24 1010.2
20260504220117 80 183 3.0 9.0 0.00 0.00 0.00 29 1010.2
20260504214551 80 86 2.0 9.0 0.00 0.00 0.00 25 1010.2
20260504213102 79 218 2.0 11.0 0.00 0.00 0.00 32 1010.2
20260504211546 78 213 3.0 12.0 0.00 0.00 0.00 31 1010.2
20260504210047 78 245 3.0 8.0 0.00 0.00 0.00 30 1010.2
20260504204559 78 262 2.0 11.0 0.00 0.00 0.00 28 1010.2
20260504203044 78 300 3.0 8.0 0.00 0.00 0.00 28 1010.2
20260504201542 78 292 2.0 8.0 0.00 0.00 0.00 28 1010.2
20260504200044 77 302 1.0 9.0 0.00 0.00 0.00 32 1010.2
20260504194541 76 238 6.0 10.0 0.00 0.00 0.00 33 1010.2
20260504193037 76 204 3.0 10.0 0.00 0.00 0.00 32 1010.2
20260504191538 76 244 5.0 11.0 0.00 0.00 0.00 32 1010.2
20260504190036 75 204 2.0 9.0 0.00 0.00 0.00 33 1010.2
20260504184534 74 284 2.0 8.0 0.00 0.00 0.00 35 1010.2
20260504183027 73 253 4.0 10.0 0.00 0.00 0.00 39 1010.2
20260504181523 72 178 2.0 9.0 0.00 0.00 0.00 38 1010.2
20260504180020 71 236 3.0 7.0 0.00 0.00 0.00 43 1010.2
20260504174516 70 325 1.0 5.0 0.00 0.00 0.00 44 1010.2
20260504173012 68 166 0.0 3.0 0.00 0.00 0.00 47 1010.2
20260504171508 66 232 1.0 4.0 0.00 0.00 0.00 49 1010.2
20260504081557 49 304 0.0 0.0 0.00 0.00 0.00 72 1010.2